Flag for Canada Weather past 2 weeks in Laval, Quebec, Canada

Now
32 °F

Light snow. Ice fog.


Feels Like: 27 °F
Forecast: 22 / 34 °F
Wind: 5 mph from West

Location: Montreal / Mirabel

Current Time: Mar 27, 2015 at 6:39:36 AM

Latest Report: Mar 27, 2015 at 6:00 AM


Visibility: 1 mi

Pressure: 29.75 "Hg

Humidity: 93%

Dew point: 30 °F

Location of LavalLocation

Historic Weather in Laval — Graph

°F

Laval temperature yesterday

Maximum temperature yesterday: 41 °F (at 11:00 AM)
Minimum temperature yesterday: 34 °F (at 9:00 PM)
Average temperature yesterday: 38 °F

Past Weeks' High & Low Weather Summary

 TemperatureHumidityPressure
High41 °F (Mar 25, 4:00 PM)100% (Mar 17, 9:00 AM)30.65 "Hg (Mar 17, 9:00 AM)
Low0 °F (Mar 23, 7:00 AM)19% (Mar 19, 6:00 PM)29.49 "Hg (Mar 17, 9:52 AM)
Average23 °F62%30.09 "Hg
* Reported Mar 12 5:00 AM — Mar 27 5:00 AM, Laval, Weather by CustomWeather, © 2015

Note: Actual official high and low records may vary slightly from our data, if they occured in-between our weather recording intervals... More about our weather records

Advertising

Laval weather history for previous 24 hours

 ConditionsComfort  
Time TempWeatherWind HumidityBarometerVisibility
5:00 AM
Fri, Mar 27
32 °FIce fog.5 mph100%29.74 "Hg1 mi
4:47 AM32 °FIce fog.5 mph100%29.74 "Hg1 mi
4:00 AM32 °FFog.6 mph100%29.73 "Hg1 mi
3:00 AM32 °FFog.6 mph100%29.74 "Hg1 mi
2:00 AM32 °FFog.7 mph100%29.72 "Hg0 mi
1:00 AM34 °FFog.5 mph93%29.72 "Hg4 mi
12:52 AM34 °FFog.3 mph93%29.72 "Hg5 mi
12:00 AM34 °FFog.5 mph93%29.74 "Hg6 mi
11:00 PM
Thu, Mar 26
34 °FFog.5 mph93%29.74 "Hg6 mi
10:00 PM34 °FOvercast.5 mph93%29.75 "Hg10 mi
9:00 PM34 °FOvercast.5 mph93%29.76 "Hg10 mi
8:00 PM36 °FOvercast.5 mph87%29.75 "Hg12 mi
7:00 PM36 °FMostly cloudy.6 mph87%29.75 "Hg7 mi
6:00 PM36 °FOvercast.6 mph93%29.74 "Hg7 mi
5:00 PM36 °FMostly cloudy.8 mph93%29.73 "Hg7 mi
4:00 PM37 °FLight rain. More clouds than sun.10 mph81%29.72 "Hg7 mi
3:00 PM39 °FLight rain. Broken clouds.8 mph70%29.73 "Hg4 mi
2:00 PM39 °FMostly cloudy.6 mph65%29.75 "Hg15 mi
1:00 PM41 °FMostly cloudy.8 mph66%29.77 "Hg15 mi
12:00 PM41 °FMostly cloudy.12 mph66%29.80 "Hg25 mi
11:00 AM41 °FMore clouds than sun.7 mph66%29.81 "Hg25 mi
10:00 AM39 °FOvercast.9 mph70%29.80 "Hg25 mi
9:00 AM39 °FMostly cloudy.12 mph70%29.82 "Hg25 mi
8:00 AM37 °FFog.10 mph81%29.83 "Hg6 mi
7:00 AM37 °FFog.9 mph87%29.83 "Hg6 mi
6:00 AM37 °FFog.9 mph93%29.80 "Hg6 mi
Weather by CustomWeather, © 2015

See weather overviewHow to use our weather pages